KJ5IIV Weather Reports


time (UTC)temp
C
wind
direction
speed
KPH
gust
KPH
rain 1hr
cm
rain 24hr
cm
rain mn
cm
humidity
%
barometer
mb
20260509201241 30 321 0.0 8.0 0.00 1.22 1.22 62 1009.0
20260509200738 30 33 6.4 12.9 0.00 1.22 1.22 59 1009.1
20260509200238 30 81 6.4 9.7 0.00 1.22 1.22 61 1009.2
20260509195734 31 342 4.8 4.8 0.00 1.22 1.22 56 1009.3
20260509195229 31 100 3.2 3.2 0.00 1.22 1.22 58 1009.4
20260509194724 31 91 3.2 8.0 0.00 1.22 1.22 56 1009.4
20260509194221 31 57 4.8 4.8 0.00 1.22 1.22 59 1009.4
20260509193718 30 252 6.4 6.4 0.00 1.22 1.22 62 1009.5
20260509193217 30 136 0.0 8.0 0.00 1.22 1.22 61 1009.6
20260509192714 30 232 4.8 6.4 0.00 1.22 1.22 64 1009.4
20260509192209 29 68 4.8 9.7 0.00 1.22 1.22 62 1009.6
20260509191705 29 87 3.2 14.5 0.00 1.22 1.22 67 1009.8
20260509191201 29 79 1.6 8.0 0.00 1.22 1.22 62 1009.6
20260509190657 28 322 3.2 6.4 0.00 1.22 1.22 61 1009.8
20260509190155 28 21 1.6 6.4 0.00 1.22 1.22 65 1009.9
20260509185653 28 99 6.4 9.7 0.00 1.22 1.22 65 1009.9
20260509185148 29 72 4.8 8.0 0.00 1.22 1.22 67 1009.9
20260509184646 28 224 0.0 6.4 0.00 1.22 1.22 67 1010.0
20260509184142 28 40 4.8 8.0 0.00 1.22 1.22 69 1009.8
20260509183639 28 278 0.0 6.4 0.00 1.22 1.22 68 1010.1
20260509183134 28 13 3.2 8.0 0.00 1.22 1.22 68 1009.9
20260509182630 27 53 4.8 8.0 0.00 1.22 1.22 70 1010.0
20260509182128 27 110 6.4 6.4 0.00 1.22 1.22 73 1010.1
20260509181626 28 69 3.2 6.4 0.00 1.22 1.22 69 1010.1
20260509181123 27 101 3.2 3.2 0.00 1.22 1.22 74 1010.1
20260509180619 27 356 3.2 6.4 0.00 1.22 1.22 72 1010.3
20260509180116 27 97 4.8 6.4 0.00 1.22 1.22 70 1010.3
20260509175611 27 138 3.2 4.8 0.00 1.22 1.22 69 1010.2
20260509175109 27 28 4.8 8.0 0.00 1.22 1.22 71 1010.3
20260509174605 28 15 3.2 4.8 0.00 1.22 1.22 68 1010.5
20260509174100 28 173 4.8 4.8 0.00 1.22 1.22 69 1010.6
20260509173555 27 245 0.0 3.2 0.00 1.22 1.22 72 1010.3
20260509173051 27 75 4.8 4.8 0.00 1.22 1.22 73 1010.6
20260509172549 26 87 3.2 6.4 0.00 1.22 1.22 74 1010.5
20260509172044 26 255 0.0 3.2 0.00 1.22 1.22 78 1010.6
20260509171540 26 103 3.2 6.4 0.00 1.22 1.22 78 1010.7
20260509171037 27 75 3.2 8.0 0.00 1.22 1.22 74 1010.6
20260509170533 26 288 0.0 4.8 0.00 1.22 1.22 76 1010.8
20260509170029 26 129 1.6 3.2 0.00 1.22 1.22 79 1010.7
20260509165527 26 114 0.0 3.2 0.00 1.22 1.22 80 1010.7
20260509165023 26 185 1.6 1.6 0.00 1.22 1.22 78 1010.9
20260509164520 26 35 0.0 1.6 0.00 1.22 1.22 80 1010.9
20260509164016 26 164 0.0 1.6 0.00 1.22 1.22 79 1010.8
20260509163514 26 71 3.2 4.8 0.00 1.22 1.22 77 1010.7
20260509163014 26 293 0.0 3.2 0.00 1.22 1.22 81 1010.7
20260509162512 26 136 3.2 4.8 0.00 1.22 1.22 77 1010.7
20260509162008 26 306 0.0 4.8 0.00 1.22 1.22 80 1010.7
20260509161505 25 10 1.6 4.8 0.00 1.22 1.22 83 1010.6
20260509160959 25 57 3.2 4.8 0.00 1.22 1.22 84 1010.8
20260509160455 25 87 3.2 6.4 0.00 1.22 1.22 85 1010.9
20260509155956 25 72 6.4 8.0 0.00 1.22 1.22 84 1010.8
20260509155453 25 81 3.2 6.4 0.00 1.22 1.22 87 1010.8
20260509154949 23 77 1.6 4.8 0.00 1.22 1.22 89 1010.7
20260509154445 23 98 3.2 4.8 0.00 1.22 1.22 90 1010.7
20260509153943 23 208 0.0 3.2 0.00 1.22 1.22 90 1010.9
20260509153439 23 61 3.2 6.4 0.00 1.22 1.22 91 1010.8
20260509152937 23 118 3.2 6.4 0.00 1.22 1.22 90 1010.7
20260509152432 23 72 4.8 8.0 0.00 1.22 1.22 91 1010.6
20260509151930 23 103 0.0 4.8 0.00 1.22 1.22 91 1010.7
20260509151425 23 357 1.6 4.8 0.00 1.22 1.22 91 1010.6
20260509150924 23 109 3.2 6.4 0.00 1.22 1.22 92 1010.2
20260509150421 23 43 3.2 4.8 0.00 1.22 1.22 92 1010.6
20260509145919 22 88 1.6 3.2 0.00 1.22 1.22 91 1010.3
20260509145419 22 94 1.6 4.8 0.00 1.22 1.22 92 1010.3
20260509144915 22 83 4.8 4.8 0.00 1.22 1.22 91 1010.6
20260509144412 23 63 0.0 3.2 0.00 1.22 1.22 91 1010.7
20260509143909 23 83 3.2 4.8 0.00 1.22 1.22 91 1010.6
20260509143407 23 115 3.2 3.2 0.00 1.22 1.22 94 1010.6
20260509142903 22 41 1.6 3.2 0.00 1.22 1.22 96 1010.7
20260509142359 22 233 0.0 4.8 0.00 1.22 1.22 97 1010.6
20260509141855 22 103 0.0 6.4 0.00 1.22 1.22 98 1010.6
20260509141352 22 239 4.8 6.4 0.00 1.22 1.22 98 1010.8
20260509140848 22 219 3.2 6.4 0.00 1.22 1.22 98 1010.6
20260509140345 21 125 1.6 3.2 0.00 1.22 1.22 98 1010.7
20260509135843 21 58 3.2 6.4 0.00 1.22 1.22 99 1010.7
20260509135341 21 88 4.8 6.4 0.00 1.22 1.22 98 1010.9
20260509134838 20 105 4.8 4.8 0.00 1.22 1.22 98 1011.1
20260509134335 20 96 3.2 3.2 0.05 1.22 1.22 98 1011.2
20260509133832 20 72 3.2 3.2 0.05 1.22 1.22 98 1011.3
20260509133328 20 57 0.0 1.6 0.05 1.22 1.22 98 1011.2
20260509132827 20 101 1.6 3.2 0.05 1.22 1.22 98 1011.3
20260509132326 20 344 0.0 1.6 0.00 1.19 1.19 98 1011.5
20260509131822 20 0 0.0 1.6 0.00 1.19 1.19 98 1011.5
20260509131319 20 342 0.0 3.2 0.00 1.19 1.19 98 1011.3
20260509130815 20 86 1.6 3.2 0.00 1.19 1.19 98 1011.2
20260509130311 20 38 0.0 3.2 0.00 1.19 1.19 98 1011.4
20260509125808 20 338 0.0 3.2 0.00 1.19 1.19 98 1011.2
20260509125307 19 60 0.0 1.6 0.00 1.19 1.19 98 1011.1
20260509124801 19 16 3.2 3.2 0.00 1.19 1.19 98 1011.0
20260509124257 19 43 1.6 3.2 0.00 1.19 1.19 98 1011.1
20260509123755 20 18 0.0 3.2 0.00 1.19 1.19 98 1011.2
20260509123253 20 12 1.6 3.2 0.00 1.19 1.19 98 1011.0
20260509122748 20 40 1.6 3.2 0.00 1.19 1.19 98 1011.2
20260509122245 20 15 3.2 3.2 0.00 1.19 1.19 98 1011.0
20260509121742 20 354 0.0 3.2 0.00 1.19 1.19 98 1010.8
20260509121239 20 73 3.2 3.2 0.00 1.19 1.19 98 1010.7
20260509120737 20 60 0.0 3.2 0.00 1.19 1.19 98 1010.8
20260509120235 20 50 3.2 3.2 0.00 1.19 1.19 98 1010.7
20260509115733 20 46 1.6 3.2 0.00 1.19 1.19 98 1010.7
20260509115230 20 28 1.6 4.8 0.00 1.19 1.19 98 1010.6
20260509114728 20 317 3.2 3.2 0.00 1.19 1.19 98 1010.3
20260509114226 20 75 4.8 4.8 0.00 1.19 1.19 98 1009.8
20260509113725 20 65 0.0 3.2 0.00 1.19 1.19 98 1009.8
20260509113221 20 81 1.6 3.2 0.00 1.19 1.19 98 1009.7
20260509112718 20 47 3.2 4.8 0.00 1.19 1.19 98 1009.4
20260509112215 19 70 0.0 3.2 0.00 1.19 1.19 98 1009.5
20260509111712 19 122 0.0 3.2 0.00 1.19 1.19 98 1009.2
20260509111209 19 134 1.6 1.6 0.00 1.19 1.19 98 1009.3
20260509110707 19 336 0.0 3.2 0.00 1.19 1.19 98 1009.2
20260509110203 19 55 3.2 3.2 0.00 1.19 1.19 98 1009.1
20260509105701 19 80 4.8 4.8 0.00 1.19 1.19 98 1008.9
20260509105158 19 22 0.0 3.2 0.00 1.19 1.19 98 1008.8
20260509104655 18 53 0.0 3.2 0.00 1.19 1.19 98 1009.0
20260509104152 18 261 3.2 3.2 0.00 1.19 1.19 98 1009.0
20260509103650 18 131 1.6 3.2 0.00 1.19 1.19 98 1008.9
20260509103148 18 283 0.0 3.2 0.00 1.19 1.19 98 1009.1
20260509102645 18 51 0.0 1.6 0.00 1.19 1.19 98 1009.0
20260509102142 18 129 1.6 1.6 0.00 1.19 1.19 98 1008.8
20260509101638 18 45 0.0 1.6 0.00 1.19 1.19 98 1009.0
20260509101135 18 224 0.0 1.6 0.00 1.19 1.19 98 1009.3
20260509100632 18 82 3.2 3.2 0.00 1.19 1.19 98 1009.2
20260509100130 18 69 0.0 1.6 0.00 1.19 1.19 98 1009.2
20260509095626 18 83 0.0 3.2 0.00 1.19 1.19 98 1009.4
20260509095123 18 79 1.6 3.2 0.00 1.19 1.19 98 1009.5
20260509094619 18 23 0.0 0.0 0.00 1.19 1.19 98 1009.5
20260509094117 18 339 0.0 1.6 0.00 1.19 1.19 98 1009.2
20260509093615 18 326 0.0 1.6 0.00 1.19 1.19 98 1009.3
20260509093112 18 98 3.2 3.2 0.00 1.19 1.19 98 1009.4
20260509092610 18 256 0.0 3.2 0.00 1.19 1.19 98 1009.1
20260509092108 18 123 0.0 3.2 0.00 1.19 1.19 98 1009.2
20260509091606 18 86 3.2 4.8 0.00 1.19 1.19 98 1009.2
20260509091102 18 165 0.0 3.2 0.00 1.19 1.19 98 1009.3
20260509090559 17 5 0.0 0.0 0.00 1.19 1.19 98 1009.4
20260509090057 17 309 0.0 1.6 0.00 1.19 1.19 98 1009.3
20260509085554 17 113 0.0 1.6 0.00 1.19 1.19 97 1009.2
20260509085050 17 66 1.6 3.2 0.00 1.19 1.19 97 1009.4
20260509084547 17 113 0.0 3.2 0.00 1.19 1.19 97 1009.9
20260509084044 17 84 1.6 3.2 0.00 1.19 1.19 97 1009.7
20260509083542 17 224 1.6 3.2 0.00 1.19 1.19 97 1009.9
20260509083038 17 337 0.0 1.6 0.00 1.19 1.19 97 1010.0
20260509082536 17 334 0.0 1.6 0.00 1.19 1.19 97 1010.2
20260509082032 17 212 0.0 1.6 0.00 1.19 1.19 97 1010.1
20260509081530 17 135 0.0 1.6 0.00 1.19 1.19 97 1010.3
20260509081026 17 229 0.0 3.2 0.00 1.19 1.19 97 1010.0
20260509080525 17 233 0.0 1.6 0.00 1.19 1.19 97 1010.0
20260509080022 17 153 1.6 1.6 0.00 1.19 1.19 97 1009.9
20260509075519 17 106 0.0 1.6 0.00 1.19 1.19 97 1009.9
20260509075017 17 78 0.0 1.6 0.00 1.19 1.19 97 1010.1
20260509074514 17 20 1.6 3.2 0.00 1.19 1.19 97 1010.1
20260509074010 17 140 0.0 3.2 0.00 1.19 1.19 97 1009.9
20260509073507 17 303 0.0 3.2 0.00 1.19 1.19 97 1010.1
20260509073003 17 166 0.0 3.2 0.00 1.19 1.19 97 1010.0
20260509072500 17 126 1.6 3.2 0.00 1.19 1.19 97 1010.5
20260509071957 17 2 1.6 1.6 0.00 1.19 1.19 97 1010.5
20260509071453 17 70 0.0 3.2 0.00 1.19 1.19 97 1010.3
20260509070952 17 195 0.0 3.2 0.00 1.19 1.19 97 1010.1
20260509070448 17 209 0.0 1.6 0.00 1.19 1.19 97 1010.9
20260509065943 17 202 0.0 1.6 0.00 1.19 1.19 97 1011.1
20260509065440 16 154 0.0 1.6 0.00 1.19 1.19 96 1011.1
20260509064937 16 19 1.6 3.2 0.00 1.19 1.19 96 1011.2
20260509064435 16 229 0.0 3.2 0.00 1.19 1.19 96 1011.0
20260509063933 16 8 4.8 6.4 0.00 1.19 1.19 96 1011.3
20260509063433 16 25 1.6 4.8 0.00 1.19 1.19 96 1011.2
20260509062930 16 45 0.0 3.2 0.00 1.19 1.19 96 1010.8
20260509062428 16 32 0.0 3.2 0.00 1.19 1.19 96 1010.9
20260509061925 16 2 3.2 3.2 0.00 1.19 1.19 96 1010.5
20260509061422 16 352 1.6 3.2 0.00 1.19 1.19 96 1010.6
20260509060919 16 36 1.6 4.8 0.00 1.19 1.19 95 1010.7
20260509060417 16 2 0.0 3.2 0.00 1.19 1.19 95 1010.6
20260509055911 16 260 0.0 4.8 0.00 1.19 1.19 95 1010.3
20260509055407 16 165 3.2 3.2 0.00 1.19 1.19 95 1010.6
20260509054904 16 69 0.0 6.4 0.00 1.19 1.19 94 1010.3
20260509054401 16 309 1.6 6.4 0.05 1.19 1.19 94 1010.9
20260509053859 16 128 0.0 6.4 0.36 1.19 1.19 93 1011.4
20260509053356 16 106 4.8 9.7 0.48 1.17 1.17 92 1011.0
20260509052854 16 113 3.2 4.8 3.07 1.14 1.14 91 1011.2
20260509052351 16 104 6.4 14.5 4.32 1.07 1.07 89 1012.4
20260509051849 17 66 11.3 16.1 2.69 0.56 0.56 87 1012.8
20260509051347 19 336 12.9 17.7 1.93 0.33 0.33 86 1012.9
20260509050843 20 337 6.4 12.9 0.66 0.10 0.10 88 1012.9
20260509050340 21 125 3.2 3.2 0.13 0.03 0.03 85 1012.2
20260509045837 20 104 4.8 6.4 0.00 0.00 0.00 84 1011.7
20260509045334 20 69 4.8 6.4 0.00 0.00 0.00 83 1011.3
20260509044831 20 78 6.4 11.3 0.00 0.00 0.00 84 1011.4
20260509044329 20 56 6.4 9.7 0.00 0.00 0.00 84 1011.6
20260509043825 20 33 1.6 4.8 0.00 0.00 0.00 85 1011.6
20260509043321 20 37 3.2 6.4 0.00 0.00 0.00 84 1011.4
20260509042817 20 21 1.6 4.8 0.00 0.00 0.00 84 1011.1
20260509042314 20 100 3.2 4.8 0.00 0.00 0.00 84 1010.9
20260509041810 20 100 3.2 4.8 0.00 0.00 0.00 84 1010.9
20260509041308 20 92 3.2 4.8 0.00 0.00 0.00 84 1011.0
20260509040806 20 39 3.2 6.4 0.00 0.00 0.00 84 1010.8
20260509040303 20 83 4.8 6.4 0.00 0.00 0.00 85 1010.6
20260509035800 20 88 3.2 4.8 0.00 0.00 0.00 84 1010.6
20260509035257 20 88 0.0 3.2 0.00 0.00 0.00 85 1010.8
20260509034753 20 37 0.0 4.8 0.00 0.00 0.00 85 1010.6
20260509034251 20 91 3.2 4.8 0.00 0.00 0.00 85 1010.3
20260509033748 20 99 3.2 4.8 0.00 0.00 0.00 85 1010.1
20260509033245 20 21 3.2 3.2 0.00 0.00 0.00 84 1010.2
20260509032742 20 155 1.6 3.2 0.00 0.00 0.00 83 1010.1
20260509032239 20 111 1.6 4.8 0.00 0.00 0.00 82 1009.8
20260509031736 20 98 0.0 3.2 0.00 0.00 0.00 81 1010.1
20260509031234 20 240 0.0 3.2 0.00 0.00 0.00 81 1009.9
20260509030731 21 351 0.0 3.2 0.00 0.00 0.00 82 1009.9
20260509030229 21 120 0.0 3.2 0.00 0.00 0.00 81 1010.0
20260509025725 21 109 3.2 3.2 0.00 0.00 0.00 82 1010.2
20260509025221 21 84 1.6 3.2 0.00 0.00 0.00 82 1010.1
20260509024717 21 71 1.6 3.2 0.00 0.00 0.00 83 1009.8
20260509024212 21 130 0.0 1.6 0.00 0.00 0.00 82 1010.0
20260509023710 21 10 3.2 4.8 0.00 0.00 0.00 80 1009.7
20260509023207 21 192 0.0 3.2 0.00 0.00 0.00 81 1009.5
20260509022703 21 122 3.2 3.2 0.00 0.00 0.00 81 1009.4
20260509022201 21 114 1.6 3.2 0.00 0.00 0.00 81 1009.6
20260509021658 21 106 3.2 3.2 0.00 0.00 0.00 81 1009.8
20260509021155 21 93 3.2 3.2 0.00 0.00 0.00 82 1009.5
20260509020653 21 95 1.6 3.2 0.00 0.00 0.00 80 1009.5
20260509020150 20 152 3.2 3.2 0.00 0.00 0.00 80 1009.2
20260509015648 20 130 0.0 3.2 0.00 0.00 0.00 80 1009.2
20260509015146 20 123 3.2 3.2 0.00 0.00 0.00 81 1009.2
20260509014642 20 88 0.0 3.2 0.00 0.00 0.00 80 1009.0
20260509014139 20 86 1.6 3.2 0.00 0.00 0.00 79 1009.0
20260509013636 21 97 3.2 3.2 0.00 0.00 0.00 78 1009.0
20260509013131 21 111 0.0 3.2 0.00 0.00 0.00 78 1009.0
20260509012628 21 180 0.0 3.2 0.00 0.00 0.00 77 1009.0
20260509012125 21 126 1.6 3.2 0.00 0.00 0.00 77 1008.7
20260509011623 21 139 3.2 3.2 0.00 0.00 0.00 76 1008.8
20260509011120 21 120 1.6 3.2 0.00 0.00 0.00 76 1008.7
20260509010617 21 171 0.0 3.2 0.00 0.00 0.00 76 1008.7
20260509010114 22 93 0.0 3.2 0.00 0.00 0.00 75 1008.7
20260509005612 22 105 3.2 3.2 0.00 0.00 0.00 74 1008.5
20260509005107 22 125 0.0 3.2 0.00 0.00 0.00 73 1008.3
20260509004604 22 115 1.6 1.6 0.00 0.00 0.00 73 1008.5
20260509004101 22 133 0.0 3.2 0.00 0.00 0.00 71 1008.6
20260509003559 22 58 0.0 3.2 0.00 0.00 0.00 70 1008.8
20260509003056 22 114 1.6 3.2 0.00 0.00 0.00 70 1008.7
20260509002554 23 151 0.0 3.2 0.00 0.00 0.00 70 1008.8
20260509002051 23 168 0.0 4.8 0.00 0.00 0.00 69 1008.9
20260509001548 23 73 1.6 3.2 0.00 0.00 0.00 68 1008.9
20260509001044 23 74 3.2 3.2 0.00 0.00 0.00 68 1008.9
20260509000543 23 110 0.0 3.2 0.00 0.00 0.00 66 1008.8
20260509000038 23 129 1.6 1.6 0.00 0.00 0.00 68 1009.1
20260508235536 23 156 1.6 1.6 0.00 0.00 0.00 67 1009.1
20260508235032 23 123 1.6 6.4 0.00 0.00 0.00 63 1009.0
20260508234530 23 68 1.6 3.2 0.00 0.00 0.00 65 1009.1
20260508234027 23 67 1.6 3.2 0.00 0.00 0.00 63 1009.0
20260508233526 23 116 3.2 3.2 0.00 0.00 0.00 62 1009.2
20260508233023 23 274 4.8 8.0 0.00 0.00 0.00 64 1009.1
20260508232520 23 168 3.2 6.4 0.00 0.00 0.00 64 1008.9
20260508232017 23 353 1.6 6.4 0.00 0.00 0.00 63 1008.2
20260508231514 23 165 3.2 6.4 0.00 0.00 0.00 65 1008.0
20260508231011 23 206 6.4 9.7 0.00 0.00 0.00 65 1007.7
20260508230508 23 92 3.2 9.7 0.00 0.00 0.00 67 1007.6
20260508230005 23 238 3.2 6.4 0.00 0.00 0.00 65 1008.0
20260508225502 23 306 6.4 22.5 0.00 0.00 0.00 63 1006.9
20260508224959 23 129 8.0 20.9 0.00 0.00 0.00 63 1006.4
20260508224456 24 94 6.4 9.7 0.00 0.00 0.00 63 1009.0
20260508223953 24 9 3.2 3.2 0.00 0.00 0.00 63 1009.9
20260508223451 24 149 1.6 4.8 0.00 0.00 0.00 62 1009.3
20260508222948 24 15 3.2 8.0 0.00 0.00 0.00 61 1009.4
20260508222446 24 81 3.2 4.8 0.00 0.00 0.00 59 1009.5
20260508221942 24 182 1.6 9.7 0.00 0.00 0.00 61 1009.2
20260508221438 25 133 1.6 3.2 0.00 0.00 0.00 61 1009.7
20260508220934 25 112 1.6 3.2 0.00 0.00 0.00 58 1010.0
20260508220431 25 33 0.0 1.6 0.00 0.00 0.00 58 1010.2
20260508215927 25 118 1.6 4.8 0.00 0.00 0.00 55 1010.0
20260508215425 25 156 0.0 3.2 0.00 0.00 0.00 57 1010.0
20260508214921 25 215 1.6 3.2 0.00 0.00 0.00 56 1009.9
20260508214419 25 4 3.2 6.4 0.00 0.00 0.00 55 1009.9
20260508213914 26 263 0.0 4.8 0.00 0.00 0.00 54 1009.7
20260508213412 26 203 1.6 3.2 0.00 0.00 0.00 52 1009.6
20260508212907 26 89 0.0 8.0 0.00 0.00 0.00 51 1009.6
20260508212404 26 89 0.0 4.8 0.00 0.00 0.00 48 1009.8
20260508211900 26 159 0.0 6.4 0.00 0.00 0.00 49 1009.7
20260508211356 27 185 3.2 3.2 0.00 0.00 0.00 48 1009.8
20260508210854 27 45 8.0 9.7 0.00 0.00 0.00 46 1009.8
20260508210350 27 263 4.8 8.0 0.00 0.00 0.00 46 1009.7
20260508205846 28 52 6.4 11.3 0.00 0.00 0.00 41 1009.7
20260508205343 28 336 1.6 6.4 0.00 0.00 0.00 45 1009.7
20260508204839 28 192 1.6 9.7 0.00 0.00 0.00 44 1009.6
20260508204336 27 84 3.2 8.0 0.00 0.00 0.00 45 1009.8
20260508203832 27 56 4.8 6.4 0.00 0.00 0.00 47 1009.9
20260508203329 26 58 4.8 12.9 0.00 0.00 0.00 48 1009.9
20260508202824 27 250 4.8 8.0 0.00 0.00 0.00 47 1009.8
20260508202322 27 19 1.6 3.2 0.00 0.00 0.00 47 1009.9
20260508201819 26 60 6.4 14.5 0.00 0.00 0.00 50 1010.0